Location: Tucson
(32.2217°N, 110.9265°W)
Time: 18:10:51
(UTC-07:00)

ISS - Pass Details

Date: 05 October 2021
Orbit: 417 x 423 km, 51.6° (Epoch: 22 October)

Event Time Altitude Azimuth Distance (km) Brightness Sun altitude
Rises 19:07:39 0° 321° (NW) 2,358 0.7 -14.5°
Reaches altitude 10° 19:09:50 10° 329° (NNW) 1,493 -0.5 -15.0°
Maximum altitude 19:13:01 40° 41° (NE) 629 -3.2 -15.7°
Enters shadow 19:13:39 36° 71° (ENE) 684 -3.2 -15.8°
